Wind_Speed
33 56 59 58 52 57 51 48 42 38 43 40 48 48 55 56 55 53 43 39 46 49 49 49 51 58 63 68 69 66 61 60 61 57 60 57 55 59 62 66 68 66 66
21 49 65 64 61 62 59 57 54 45 54 44 41 57 57 58 57 54 56 57 58 55 55 55 58 62 66 63 63 62 62 56 59 53 54 58 61 63 65 66 65 65 69
22 30 55 70 70 68 63 64 61 54 54 58 52 47 55 62 61 62 56 60 63 67 67 69 75 69 68 72 59 62 58 59 54 58 57 58 62 60 63 67 69 75 73
22 22 30 61 76 74 69 63 65 62 53 55 64 62 60 60 64 63 67 69 70 74 74 72 72 71 62 59 60 61 59 60 57 61 59 62 63 68 71 73 73 73 70
24 17 21 32 49 67 74 67 63 67 65 68 59 72 71 69 67 69 72 76 74 68 65 65 65 61 57 55 58 60 59 59 61 63 63 61 65 67 66 68 65 66 71
24 16 13 25 35 45 56 68 67 62 64 65 63 68 72 74 72 73 73 73 73 71 65 67 63 61 62 61 60 63 66 65 64 59 61 65 63 63 62 64 64 66 70
17 15 14 13 24 34 45 55 58 64 70 65 67 64 70 70 74 72 70 66 58 60 58 57 57 55 58 58 60 61 62 62 64 65 63 63 62 61 63 67 71 78 78
17 17 14 14 18 26 34 37 39 53 53 53 55 55 54 61 67 66 56 56 61 63 66 66 67 64 62 57 57 58 60 65 65 62 61 57 61 64 71 77 82 86 87
17 11 15 17 16 20 27 33 36 40 40 48 45 44 45 47 45 52 54 52 60 60 57 59 61 56 54 52 53 54 57 66 67 61 55 73 74 76 81 85 85 86 87
14 14 11 15 18 20 21 26 31 36 41 46 49 45 45 45 47 51 52 51 52 58 55 51 51 49 47 46 51 59 58 57 60 58 71 83 87 87 86 87 89 94 91
13 10 9 10 14 19 19 19 19 23 32 36 38 38 38 40 42 44 44 44 44 43 43 45 44 41 37 47 45 49 53 53 65 67 77 88 88 84 89 91 92 87 85
13 11 10 9 11 16 16 15 22 24 24 24 28 30 30 31 34 36 37 39 41 44 45 43 40 39 42 43 41 47 47 50 65 75 83 85 87 92 90 90 88 84 82
16 11 11 14 13 11 11 10 9 9 11 14 19 22 24 26 31 34 36 37 36 36 33 36 36 34 35 42 41 44 52 61 65 75 82 88 88 86 86 88 83 83 83
23 19 14 13 15 15 14 12 13 16 15 12 14 14 16 18 19 20 20 20 25 28 26 27 31 44 46 47 50 55 59 67 74 82 82 80 75 74 77 81 84 86 86
30 26 21 17 17 14 16 17 18 18 17 16 19 20 22 25 24 21 18 20 23 22 27 32 41 43 48 56 59 59 56 59 64 67 63 70 72 75 75 74 77 81 84
36 32 28 25 23 21 17 17 18 17 18 20 21 23 24 26 29 31 30 31 35 34 33 37 41 45 49 51 54 57 60 63 65 67 70 73 77 79 82 84 85 85 86
39 38 36 32 30 27 25 25 24 24 23 23 23 25 27 29 29 32 34 40 40 43 44 47 49 52 54 56 60 61 66 70 71 72 75 77 78 81 84 88 90 91 90
40 42 39 37 34 34 32 32 33 31 29 29 30 32 34 35 36 36 39 43 46 48 50 52 54 56 59 61 62 65 69 72 77 75 79 82 84 85 90 93 94 95 93
37 41 37 36 37 37 36 37 37 37 37 35 33 36 38 40 42 44 46 48 51 53 54 57 59 62 65 67 69 74 73 74 78 80 84 87 90 92 95 98 98 97 95
41 42 42 39 40 42 43 44 43 44 42 39 39 42 44 46 46 48 50 53 54 55 58 61 63 65 68 70 74 77 74 77 80 83 88 91 93 97 100 103 103 101 100
54 43 44 46 47 47 48 49 46 46 44 43 45 47 49 50 51 53 55 58 60 61 63 65 68 71 74 74 80 78 79 81 83 88 92 95 99 103 105 108 108 107 105
65 55 44 49 49 48 48 51 50 46 45 46 49 50 51 53 55 57 60 63 65 67 70 71 74 78 79 81 86 86 85 86 90 94 98 101 105 109 111 112 112 110 106
66 65 54 49 54 58 56 54 46 50 49 49 51 52 53 55 58 62 65 68 70 74 76 78 80 83 82 88 93 92 91 93 96 100 104 108 112 113 115 116 114 110 108
65 67 66 59 60 59 56 50 50 53 52 54 55 58 58 61 65 70 72 74 76 79 82 83 85 87 90 94 99 97 97 100 104 108 112 115 117 120 120 117 114 112 113
66 66 67 69 67 62 55 53 55 56 59 60 62 63 65 68 74 76 81 83 83 85 88 88 89 94 98 100 101 101 105 108 111 116 118 120 124 123 119 117 116 117 119
67 68 69 68 67 63 59 58 60 64 66 67 68 70 72 76 81 83 89 89 88 89 90 91 96 99 102 105 106 109 112 116 120 122 125 125 125 122 121 120 120 121 123
Wind_Direction
242 221 222 223 222 213 217 218 218 216 221 217 209 208 214 217 228 237 252 264 263 270 277 274 279 282 282 284 289 292 292 293 294 291 295 292 290 288 288 291 291 292 291
269 229 224 226 223 220 222 219 227 230 224 220 226 222 222 225 231 238 244 254 260 265 270 274 281 284 284 286 289 292 295 293 295 286 288 285 287 288 288 288 290 291 293
305 248 229 229 226 222 226 228 232 236 229 224 225 229 234 237 241 242 248 255 259 262 269 271 276 280 282 283 288 291 289 292 290 292 288 290 288 287 287 287 289 292 294
315 290 242 232 231 227 230 233 236 239 236 231 233 231 237 244 249 251 253 257 262 264 270 273 276 281 286 287 288 288 287 287 287 290 288 290 288 288 290 292 292 293 295
314 302 273 250 235 234 232 236 236 240 246 247 241 236 240 250 252 254 258 259 264 270 275 279 282 284 282 282 276 282 288 290 291 291 290 290 291 291 294 294 295 292 295
308 294 276 251 248 240 239 238 239 242 244 247 248 251 249 251 258 256 260 264 269 273 277 280 283 285 287 288 288 286 288 290 287 286 292 296 292 292 295 298 302 306 304
299 286 298 261 250 246 243 245 245 243 244 249 250 253 253 253 258 262 266 270 274 276 280 281 284 284 283 284 287 288 288 287 286 288 293 291 291 294 304 308 305 306 307
300 284 279 280 264 244 245 246 246 248 250 250 254 259 261 258 259 262 266 269 270 273 275 278 284 283 287 288 291 289 289 287 287 288 290 299 303 300 306 309 310 313 311
311 289 276 273 269 262 247 246 245 248 250 251 255 250 251 255 259 261 267 269 271 274 277 279 281 283 287 292 295 295 292 290 288 288 288 308 308 307 309 313 312 310 307
299 308 296 276 271 265 255 247 248 251 254 253 253 255 255 255 256 260 264 268 271 273 278 282 284 288 286 290 299 304 306 307 303 299 310 307 307 311 311 308 307 306 305
288 287 300 292 289 277 265 261 255 254 255 257 261 261 260 261 261 263 266 269 271 276 280 283 284 283 287 302 310 309 309 299 294 293 300 302 306 305 304 304 304 302 300
284 291 291 299 306 288 285 265 255 253 253 255 259 259 259 264 266 267 269 269 271 272 274 276 275 269 278 297 293 287 290 274 277 286 296 300 299 301 302 302 303 300 298
270 284 294 287 289 290 306 288 261 262 283 284 279 277 274 267 263 264 267 270 274 278 284 276 264 273 278 291 285 279 278 285 289 289 292 298 299 301 300 298 298 296 295
269 272 273 292 287 288 288 303 303 309 315 307 309 305 304 303 299 289 282 289 293 292 282 280 288 283 278 281 283 281 277 277 284 290 294 297 299 301 302 299 296 295 295
257 262 269 275 280 280 286 292 296 299 298 311 308 306 306 305 297 293 287 294 298 296 290 281 272 279 282 280 279 281 283 284 288 292 300 303 306 304 304 308 302 298 297
253 253 254 261 272 275 277 280 280 282 278 278 281 286 286 290 283 281 273 282 292 293 289 287 289 289 289 291 294 293 293 296 298 299 301 307 310 310 311 311 310 307 302
251 252 253 249 257 270 275 278 280 283 285 289 291 292 291 293 289 278 272 285 287 289 291 293 294 294 294 298 297 299 296 296 299 304 304 305 307 308 309 308 308 307 303
246 249 251 256 262 263 264 271 272 274 280 286 291 293 299 302 300 297 295 293 294 293 293 294 294 293 295 296 298 299 302 300 297 299 303 303 305 306 308 310 307 304 303
239 242 245 248 252 256 262 267 272 275 277 283 288 294 299 300 301 300 300 299 297 295 294 294 294 295 296 298 301 301 300 299 297 299 303 303 304 304 308 309 305 303 301
228 239 236 239 246 254 259 264 272 280 282 287 291 295 299 299 300 302 300 299 299 297 296 296 296 297 296 298 298 305 301 300 299 299 301 302 303 305 306 307 305 303 300
230 235 245 250 254 257 264 267 270 274 282 289 293 297 298 298 300 300 299 299 297 297 297 295 294 295 297 299 302 303 302 301 300 302 303 303 304 306 306 306 305 303 303
236 234 238 249 255 257 258 262 266 275 282 286 291 293 294 296 297 297 297 297 296 296 296 296 296 298 300 300 305 306 304 302 302 303 304 305 305 306 305 305 303 302 302
237 238 236 234 242 250 257 266 273 278 282 288 288 290 293 297 299 299 298 296 297 298 298 298 300 302 301 303 305 306 305 305 305 305 304 304 306 306 304 302 301 300 303
235 240 240 241 246 252 260 267 272 276 282 281 284 287 292 297 299 301 302 299 298 298 299 300 302 302 303 303 305 307 305 305 305 305 306 307 306 302 300 300 303 303 303
235 241 245 248 254 259 265 268 270 275 277 280 282 285 291 295 299 300 303 301 298 299 300 302 302 303 304 305 306 305 305 306 306 306 306 303 301 302 303 303 303 303 303
237 242 247 252 256 259 263 263 268 273 277 279 283 289 292 296 298 299 304 301 299 300 302 302 302 303 304 306 305 306 306 305 305 305 303 303 304 304 303 303 303 303 302
Height
10587 10591 10593 10600 10608 10615 10623 10629 10633 10638 10642 10646 10648 10649 10656 10659 10661 10662 10662 10662 10664 10665 10666 10665 10665 10666 10667 10666 10665 10662 10661 10660 10658 10654 10653 10650 10646 10645 10640 10635 10632 10627 10623
10583 10586 10590 10592 10599 10607 10615 10621 10626 10631 10636 10640 10643 10647 10649 10651 10654 10655 10655 10656 10658 10658 10658 10657 10657 10657 10656 10653 10653 10651 10649 10648 10646 10643 10641 10638 10634 10632 10626 10620 10616 10612 10607
10578 10580 10584 10586 10593 10600 10607 10613 10618 10623 10629 10634 10636 10639 10643 10647 10647 10647 10647 10648 10650 10650 10648 10648 10647 10646 10644 10642 10640 10639 10637 10637 10633 10633 10630 10625 10621 10617 10612 10606 10603 10598 10591
10575 10572 10575 10581 10585 10592 10599 10606 10610 10615 10621 10626 10629 10631 10634 10637 10638 10639 10641 10640 10642 10639 10638 10638 10638 10637 10633 10630 10629 10628 10624 10623 10622 10620 10618 10614 10608 10604 10597 10592 10587 10582 10575
10570 10570 10568 10572 10578 10582 10591 10596 10600 10606 10609 10616 10619 10622 10625 10626 10627 10630 10630 10630 10629 10630 10629 10626 10625 10624 10622 10619 10617 10615 10610 10608 10607 10605 10604 10600 10597 10589 10583 10578 10569 10565 10560
10565 10565 10565 10565 10568 10572 10579 10584 10592 10596 10601 10604 10605 10609 10611 10613 10613 10616 10616 10617 10618 10617 10615 10613 10614 10613 10608 10606 10603 10599 10595 10594 10591 10590 10589 10585 10580 10574 10568 10562 10556 10550 10545
10563 10560 10559 10561 10562 10565 10569 10575 10580 10586 10592 10595 10598 10599 10600 10602 10603 10606 10606 10607 10604 10604 10603 10602 10600 10599 10597 10595 10590 10585 10582 10579 10576 10574 10571 10566 10563 10559 10553 10549 10545 10538 10529
10561 10559 10558 10557 10557 10561 10564 10568 10570 10576 10580 10582 10586 10587 10587 10591 10592 10593 10592 10593 10593 10592 10592 10592 10591 10588 10584 10579 10577 10573 10566 10561 10560 10558 10556 10552 10547 10541 10536 10532 10525 10517 10508
10560 10558 10557 10556 10555 10555 10557 10560 10564 10567 10567 10569 10575 10577 10578 10580 10582 10582 10582 10580 10580 10582 10581 10580 10578 10575 10571 10564 10560 10555 10549 10543 10542 10540 10538 10533 10530 10526 10519 10511 10503 10498 10491
10560 10555 10553 10552 10552 10553 10554 10554 10557 10559 10561 10565 10568 10567 10569 10571 10573 10572 10571 10570 10569 10570 10571 10568 10565 10562 10557 10554 10547 10537 10534 10525 10521 10519 10517 10516 10512 10507 10501 10495 10488 10482 10474
10558 10556 10552 10549 10549 10549 10550 10551 10551 10553 10555 10556 10557 10558 10560 10562 10561 10559 10560 10559 10559 10560 10555 10554 10553 10548 10543 10540 10536 10530 10526 10519 10514 10511 10507 10504 10500 10494 10487 10479 10473 10465 10456
10552 10552 10550 10548 10547 10546 10546 10548 10548 10548 10549 10550 10549 10551 10552 10551 10550 10549 10550 10549 10548 10545 10545 10543 10541 10535 10534 10531 10530 10528 10523 10520 10513 10507 10500 10495 10489 10482 10473 10464 10456 10448 10440
10545 10545 10546 10545 10544 10544 10543 10543 10543 10544 10543 10542 10541 10540 10541 10541 10541 10542 10541 10540 10538 10536 10534 10532 10530 10528 10526 10524 10521 10519 10517 10511 10505 10498 10491 10484 10475 10467 10457 10448 10439 10430 10421
10538 10539 10541 10541 10540 10540 10540 10539 10537 10537 10536 10536 10535 10535 10535 10535 10534 10534 10532 10531 10529 10527 10527 10526 10522 10521 10518 10516 10514 10511 10507 10501 10495 10487 10478 10470 10461 10451 10442 10431 10420 10410 10400
10534 10533 10534 10534 10536 10536 10535 10535 10535 10534 10532 10532 10532 10532 10531 10530 10529 10527 10526 10525 10524 10522 10519 10518 10517 10514 10511 10507 10503 10499 10491 10485 10481 10474 10465 10453 10443 10432 10423 10413 10403 10391 10380
10528 10528 10528 10528 10528 10530 10530 10530 10531 10531 10530 10529 10528 10527 10526 10525 10523 10521 10519 10518 10516 10513 10511 10508 10505 10501 10497 10491 10487 10481 10475 10467 10460 10453 10446 10434 10421 10409 10397 10388 10378 10368 10357
10519 10519 10520 10522 10523 10522 10523 10524 10524 10524 10523 10522 10522 10521 10519 10517 10515 10513 10511 10509 10506 10502 10498 10495 10490 10485 10480 10474 10468 10462 10455 10447 10439 10432 10423 10413 10402 10391 10380 10369 10357 10345 10333
10507 10508 10510 10512 10513 10515 10515 10516 10515 10515 10515 10513 10511 10509 10508 10506 10504 10502 10500 10496 10492 10489 10485 10481 10475 10470 10465 10459 10452 10444 10436 10426 10416 10411 10402 10390 10379 10371 10359 10347 10335 10323 10310
10495 10498 10500 10501 10502 10504 10505 10504 10505 10505 10505 10505 10503 10501 10498 10496 10493 10489 10486 10482 10479 10474 10469 10464 10458 10452 10447 10441 10434 10426 10417 10408 10398 10388 10379 10368 10358 10348 10335 10324 10312 10300 10287
10483 10488 10489 10490 10491 10492 10492 10492 10494 10494 10495 10493 10491 10489 10486 10484 10480 10476 10472 10468 10463 10458 10453 10447 10441 10434 10427 10421 10413 10405 10396 10386 10375 10367 10359 10347 10334 10322 10311 10299 10286 10274 10263
10469 10475 10478 10479 10480 10481 10481 10482 10482 10482 10481 10479 10478 10476 10473 10469 10465 10462 10457 10453 10448 10442 10437 10431 10423 10416 10409 10401 10393 10383 10374 10364 10354 10344 10332 10321 10308 10295 10282 10269 10257 10244 10229
10456 10460 10463 10466 10467 10469 10468 10467 10469 10471 10470 10468 10466 10464 10460 10456 10451 10447 10442 10436 10430 10424 10418 10411 10404 10396 10388 10379 10369 10358 10348 10338 10328 10316 10304 10291 10278 10265 10252 10239 10227 10215 10202
10444 10447 10448 10447 10449 10450 10453 10458 10459 10457 10455 10454 10451 10448 10444 10440 10435 10430 10424 10418 10411 10404 10397 10389 10381 10373 10364 10355 10344 10333 10322 10310 10298 10288 10276 10264 10249 10234 10222 10211 10198 10185 10170
10430 10432 10434 10434 10434 10436 10441 10446 10445 10443 10442 10439 10436 10433 10428 10423 10418 10412 10406 10399 10392 10384 10375 10366 10358 10348 10339 10330 10319 10307 10296 10284 10271 10258 10244 10230 10218 10207 10195 10180 10164 10150 10137
10418 10420 10422 10423 10426 10428 10430 10431 10430 10428 10426 10424 10421 10417 10412 10406 10400 10392 10386 10378 10369 10361 10352 10343 10334 10324 10314 10303 10291 10280 10267 10255 10242 10228 10215 10203 10190 10173 10157 10143 10129 10116 10103
10405 10409 10412 10413 10414 10416 10416 10416 10413 10412 10409 10406 10403 10398 10392 10386 10379 10372 10364 10355 10346 10337 10328 10319 10309 10298 10287 10275 10263 10250 10237 10225 10213 10199 10185 10169 10153 10138 10122 10108 10095 10081 10067